This demonstration page uses our WeatherBlox Daily Observations layout. Learn more.

Left ArrowRight Arrow

Hourly Observations for June 1, 2016

Temp ( °F °C ) Dew Point ( °F °C ) Humidity (%) Winds ( mph kmh ) Pressure ( in mb ) Visibility ( mi km ) Precip ( " mm )
12:51 am 00:51 Clear 77 25 33 0.6 20 20 SSW 7 11 29.71 1006 10 16 0.00 0.00
1:51 am 01:51 Partly Cloudy 77 25 33 0.6 20 20 N 6 9 29.70 1006 10 16 0.00 0.00
2:51 am 02:51 Mostly Cloudy 78 25.6 35 1.7 21 21 N 15 24 29.73 1007 10 16 0.00 0.00
3:51 am 03:51 Mostly Cloudy 77 25 36 2.2 23 23 Calm 29.75 1007 10 16 0.00 0.00
4:51 am 04:51 Cloudy 71 21.7 42 5.6 35 35 S 8 13 29.80 1009 10 16 0.00 0.03
5:51 am 05:51 Sunny 71 21.7 40 4.4 32 32 NNE 6 9 29.80 1009 10 16 0.00 0.00
6:51 am 06:51 Sunny 75 23.9 39 3.9 27 27 ENE 5 7 29.80 1009 10 16 0.00 0.00
7:51 am 07:51 Sunny 76 24.4 41 5 29 29 ESE 7 11 29.82 1010 10 16 0.00 0.00
8:51 am 08:51 Sunny 79 26.1 38 3.3 23 23 SE 8 13 29.82 1010 10 16 0.00 0.00
9:51 am 09:51 Sunny 82 27.8 38 3.3 21 21 S 7 11 29.82 1010 10 16 0.00 0.00
10:51 am 10:51 Sunny 84 28.9 37 2.8 19 19 SSE 9 15 29.81 1010 10 16 0.00 0.00
11:51 am 11:51 Sunny 88 31.1 35 1.7 15 15 VRB 6 9 29.79 1009 10 16 0.00 0.00
12:51 pm 12:51 Sunny 87 30.6 36 2.2 16 16 Calm 29.78 1008 10 16 0.00 0.00
1:51 pm 13:51 Sunny 88 31.1 36 2.2 16 16 VRB 5 7 29.77 1008 10 16 0.00 0.00
2:51 pm 14:51 Sunny 88 31.1 35 1.7 15 15 ENE 16 26 29.76 1008 10 16 0.00 0.00
3:51 pm 15:51 Sunny 89 31.7 37 2.8 16 16 E 18 30 29.74 1007 10 16 0.00 0.00
4:51 pm 16:51 Sunny 87 30.6 37 2.8 17 17 ESE 10 17 29.72 1007 10 16 0.00 0.00
5:51 pm 17:51 Sunny 87 30.6 36 2.2 16 16 E 10 17 29.72 1007 10 16 0.00 0.00
6:51 pm 18:51 Sunny 86 30 35 1.7 16 16 SSE 8 13 29.73 1007 10 16 0.00 0.00
7:51 pm 19:51 Clear 83 28.3 35 1.7 18 18 ESE 8 13 29.77 1008 10 16 0.00 0.00
8:51 pm 20:51 Clear 77 25 35 1.7 22 22 SE 6 9 29.80 1009 10 16 0.00 0.00
9:51 pm 21:51 Clear 75 23.9 36 2.2 24 24 SSE 3 6 29.82 1010 10 16 0.00 0.00
10:51 pm 22:51 Clear 71 21.7 35 1.7 27 27 SSE 7 11 29.83 1010 10 16 0.00 0.00
11:51 pm 23:51 Clear 71 21.7 36 2.2 28 28 SE 6 9 29.83 1010 10 16 0.00 0.00

Powered by AerisWeather